Location: LDNL
(36.4545°S, 141.6685°E)
Time: 07:37:14
(UTC+10:00)

ISS - Visible Passes

Search period start: 16 July 2024 00:00
Search period end: 26 July 2024 00:00
Orbit: 410 x 424 km, 51.6° (Epoch: 15 July)

Date Brightness Start Highest point End Pass type
(mag) Time Alt. Az. Time Alt. Az. Time Alt. Az.
16 Jul -3.8 06:52:39 10° NW 06:56:04 81° SW 06:59:32 10° SE visible
17 Jul -3.0 06:05:44 21° NNW 06:07:46 52° NE 06:11:09 10° ESE visible
18 Jul -1.3 05:20:30 23° E 05:20:30 23° E 05:22:26 10° ESE visible
18 Jul -2.7 06:53:28 12° W 06:56:09 29° SSW 06:59:14 10° SSE visible
19 Jul -3.4 06:07:46 47° SSW 06:07:46 47° SSW 06:10:57 10° SE visible
20 Jul -0.9 05:21:45 15° SE 05:21:45 15° SE 05:22:28 10° SE visible
20 Jul -1.7 06:54:41 12° SW 06:56:11 15° SSW 06:58:13 10° SSE visible
21 Jul -1.7 06:08:23 18° S 06:08:23 18° S 06:10:01 10° SSE visible
23 Jul -1.1 06:08:08 10° S 06:08:08 10° S 06:08:14 10° S visible
